Overview Statistics Trail Chart Weather Telemetry Raw packets
 

This is the latest recevied weather packets stored in our database for station/object KB0BDN-13. If no packets are shown the sender has not sent any weather packets the latest 10 day(s).

<< 37 38 39 40 41 42 43 >>
Time Temp. Humidity Pressure Rain* Wind** Luminosity Snow
1788232595 15.56° C 98% 1004.4 hPa 0 mm - - -
1788232453 15.56° C 98% 1004.4 hPa 0 mm - - -
1788231694 15.56° C 98% 1004.4 hPa 0 mm - - -
1788231551 15.56° C 98% 1004.3 hPa 0 mm - - -
1788230803 16.11° C 98% 1004.3 hPa 0 mm - - -
1788230652 16.11° C 98% 1004.1 hPa 0 mm - - -
1788229894 16.67° C 97% 1004.1 hPa 0 mm - - -
1788229753 16.67° C 97% 1003.9 hPa 0 mm - - -
1788228994 17.22° C 98% 1003.9 hPa 0 mm - - -
1788228094 17.78° C 97% 1003.8 hPa 0 mm - - -
1788227955 17.78° C 97% 1003.7 hPa 0 mm - - -
1788227194 17.78° C 97% 1003.7 hPa 0 mm - - -
1788226294 18.33° C 97% 1003.5 hPa 0 mm - - -
1788225394 18.89° C 96% 1003.4 hPa 0 mm - - -
1788224494 19.44° C 96% 1003.2 hPa 0 mm - - -
1788223594 20° C 95% 1003.2 hPa 0 mm - - -
1788223448 20° C 95% 1002.9 hPa 0 mm - - -
1788222695 20.56° C 94% 1002.9 hPa 0 mm - - -
1788222554 20.56° C 93% 1002.7 hPa 0 mm - - -
1788221795 21.11° C 92% 1002.7 hPa 0 mm - - -
1788221655 21.11° C 91% 1002.7 hPa 0 mm - - -
1788220895 21.67° C 90% 1002.7 hPa 0 mm - - -
1788219995 22.22° C 89% 1002.6 hPa 0 mm - - -
1788219852 22.22° C 89% 1002.6 hPa 0 mm - - -
1788219095 22.22° C 89% 1002.6 hPa 0 mm - - -

* Rain latest hour (hover to see other rain measurements)
** Current wind speed in m/s (hover to see current wind gust speed)